Location: Newark
(43.9494°N, 6.8108°E)
Time: 21:18:43
(UTC+00:00)

Transit 2A - All Passes

Search period start: 15 October 2019 00:00
Search period end: 25 October 2019 00:00
Orbit: 600 x 959 km, 66.7° (Epoch: 15 October)

Date Brightness Start Highest point End Pass type
(mag) Time Alt. Az. Time Alt. Az. Time Alt. Az.
15 Oct - 03:23:07 10° N 03:25:53 16° NE 03:28:36 10° ENE visible
15 Oct - 05:05:12 10° NW 05:09:35 74° WSW 05:13:54 10° SSE visible
15 Oct - 19:45:22 10° SSW 19:50:54 68° ESE 19:55:55 10° NE visible
15 Oct - 21:30:24 10° W 21:34:28 22° NW 21:38:15 10° N night (unlit)
16 Oct - 02:49:44 10° NNE 02:51:27 12° NE 02:53:10 10° ENE visible
16 Oct - 04:31:05 10° NNW 04:35:29 72° ENE 04:39:48 10° SE visible
16 Oct - 06:16:30 10° W 06:17:56 11° WSW 06:19:22 10° SW daylight
16 Oct - 19:11:31 10° S 19:16:51 47° ESE 19:21:40 10° NE visible
16 Oct - 20:55:31 10° WSW 21:00:09 29° NW 21:04:27 10° NNE visible
17 Oct - 03:57:03 10° NNW 04:01:19 47° NE 04:05:30 10° SE visible
17 Oct - 05:41:05 10° WNW 05:44:02 18° WSW 05:47:00 10° SSW daylight
17 Oct - 18:37:55 10° S 18:42:49 32° ESE 18:47:19 10° NE visible
17 Oct - 20:20:50 10° WSW 20:25:55 39° NW 20:30:33 10° NNE visible
18 Oct - 03:23:06 10° NNW 03:27:06 32° NE 03:31:00 10° ESE visible
18 Oct - 05:06:24 10° NW 05:10:06 28° WSW 05:13:48 10° S visible
18 Oct - 18:04:37 10° SSE 18:08:49 22° ESE 18:12:45 10° ENE visible
18 Oct - 19:46:21 10° SW 19:51:42 55° NW 19:56:34 10° NNE visible
18 Oct - 21:34:07 10° NW 21:35:52 12° NW 21:37:36 10° NNW night (unlit)
19 Oct - 02:49:15 10° N 02:52:49 23° NE 02:56:17 10° E visible
19 Oct - 04:31:59 10° NW 04:36:07 43° WSW 04:40:14 10° S visible
19 Oct - 17:31:48 10° SE 17:34:52 15° ESE 17:37:48 10° ENE visible
19 Oct - 19:12:03 10° SW 19:17:34 78° WNW 19:22:32 10° NNE visible
19 Oct - 20:58:26 10° WNW 21:01:25 15° NW 21:04:18 10° N visible
20 Oct - 02:15:33 10° N 02:18:28 17° NE 02:21:19 10° E visible
20 Oct - 03:57:44 10° NW 04:02:05 68° WSW 04:06:24 10° SSE visible
20 Oct - 18:37:57 10° SSW 18:43:27 74° ESE 18:48:25 10° NE visible
20 Oct - 20:23:13 10° W 20:27:03 20° NW 20:30:39 10° N visible
21 Oct - 01:42:05 10° N 01:44:02 13° NE 01:45:59 10° ENE visible
21 Oct - 03:23:36 10° NNW 03:27:59 79° ENE 03:32:20 10° SE visible
21 Oct - 05:09:46 10° W 05:10:24 10° WSW 05:11:02 10° WSW visible
21 Oct - 18:04:04 10° S 18:09:22 50° ESE 18:14:12 10° NE visible
21 Oct - 19:48:17 10° WSW 19:52:44 27° NW 19:56:52 10° N visible
22 Oct - 02:49:33 10° NNW 02:53:50 51° NE 02:58:05 10° SE visible
22 Oct - 04:33:46 10° WNW 04:36:31 16° WSW 04:39:16 10° SSW visible
22 Oct - 17:30:24 10° S 17:35:20 35° ESE 17:39:52 10° NE visible
22 Oct - 19:13:33 10° WSW 19:18:28 36° NW 19:22:59 10° NNE visible
23 Oct - 02:15:36 10° NNW 02:19:38 35° NE 02:23:37 10° ESE visible
23 Oct - 03:59:01 10° NW 04:02:35 25° WSW 04:06:10 10° SSW visible
23 Oct - 16:57:02 10° SSE 17:01:20 24° ESE 17:05:21 10° ENE visible
23 Oct - 18:39:02 10° SW 18:44:16 51° NW 18:49:02 10° NNE visible
23 Oct - 20:27:19 10° NW 20:28:29 11° NW 20:29:38 10° NNW visible
24 Oct - 01:41:44 10° N 01:45:21 25° NE 01:48:56 10° ESE night (unlit)
24 Oct - 03:24:33 10° NW 03:28:36 39° WSW 03:32:40 10° S visible
24 Oct - 16:24:06 10° SE 16:27:23 16° ESE 16:30:30 10° ENE daylight
24 Oct - 18:04:42 10° SW 18:10:07 73° WNW 18:15:01 10° NNE visible
24 Oct - 19:51:21 10° WNW 19:54:01 14° NW 19:56:36 10° N visible
